Location: Asheville, NC
(35.6000°N, 82.5500°W)
Time: 03:36:15
(UTC-04:00)

HO-68 - Pass Details

Date: 12 January 2018
Orbit: 1192 x 1205 km, 100.1° (Epoch: 24 June)

Event Time Altitude Azimuth Distance (km) Brightness Sun altitude
Rises 19:55:38 0° 198° (SSW) 4,087 ? -27.6°
Reaches altitude 10° 19:58:45 10° 210° (SSW) 3,125 ? -28.2°
Maximum altitude 20:04:31 26° 264° (W) 2,154 ? -29.3°
Drops below altitude 10° 20:10:18 10° 319° (NW) 3,132 ? -30.5°
Sets 20:13:28 0° 332° (NNW) 4,098 ? -31.2°
